FW6146 Weather Reports


Display with metric or nautical units.
time (UTC)temp
F
wind
direction
speed
MPH
gust
MPH
rain 1hr
in
rain 24hr
in
rain mn
in
humidity
%
barometer
mb
20260504013955 42 0.0 0.0 0.00 0.00 0.00 64 1008.8
20260504012941 43 0.0 0.0 0.00 0.00 0.00 61 1009.0
20260504012020 44 0.0 0.0 0.00 0.00 0.00 58 1008.8
20260504010946 44 0.0 0.0 0.00 0.00 0.00 57 1008.7
20260504010006 44 0.0 0.0 0.00 0.00 0.00 55 1008.6
20260504004951 45 0.0 0.0 0.00 0.00 0.00 55 1008.5
20260504004010 45 0.0 0.0 0.00 0.00 0.00 56 1008.4
20260504002955 47 0.0 0.0 0.00 0.00 0.00 52 1008.1
20260504002014 48 0.0 0.0 0.00 0.00 0.00 48 1008.2
20260504001000 48 0.0 0.0 0.00 0.00 0.00 46 1008.0
20260503235946 50 0.0 0.0 0.00 0.00 0.00 45 1007.9
20260503235045 50 338 0.0 1.0 0.00 0.00 0.00 43 1007.8
20260503233950 50 316 0.0 2.0 0.00 0.00 0.00 43 1007.6
20260503233008 51 323 1.0 2.0 0.00 0.00 0.00 41 1007.4
20260503231954 52 301 2.0 3.0 0.00 0.00 0.00 40 1007.3
20260503231013 52 317 2.0 5.0 0.00 0.00 0.00 39 1007.1
20260503225959 52 331 1.0 2.0 0.00 0.00 0.00 41 1007.2
20260503225018 52 347 2.0 3.0 0.00 0.00 0.00 41 1007.1
20260503224004 52 345 1.0 2.0 0.00 0.00 0.00 40 1006.8
20260503222949 52 354 2.0 5.0 0.00 0.00 0.00 39 1006.7
20260503222047 52 319 3.0 5.0 0.00 0.00 0.00 41 1006.6
20260503220953 52 276 4.0 7.0 0.00 0.00 0.00 41 1006.4
20260503220012 52 315 2.0 5.0 0.00 0.00 0.00 42 1006.4
20260503214958 52 318 2.0 2.0 0.00 0.00 0.00 41 1006.2
20260503214017 53 327 2.0 5.0 0.00 0.00 0.00 39 1005.9
20260503213003 53 324 2.0 3.0 0.00 0.00 0.00 40 1005.9
20260503212022 53 304 2.0 5.0 0.00 0.00 0.00 38 1005.8
20260503211008 53 332 3.0 7.0 0.00 0.00 0.00 39 1005.6
20260503210014 53 24 1.0 3.0 0.00 0.00 0.00 40 1005.1
20260503205013 54 181 3.0 7.0 0.00 0.00 0.00 39 1005.3
20260503203958 53 323 2.0 3.0 0.00 0.00 0.00 43 1005.2
20260503203017 53 301 3.0 8.0 0.00 0.00 0.00 41 1005.0
20260503202002 54 320 2.0 7.0 0.00 0.00 0.00 42 1004.9
20260503201041 54 218 2.0 5.0 0.00 0.00 0.00 41 1004.9
20260503200007 54 321 3.0 6.0 0.00 0.00 0.00 42 1005.0
20260503195025 54 334 2.0 8.0 0.00 0.00 0.00 43 1005.1
20260503194011 53 320 2.0 6.0 0.00 0.00 0.00 44 1004.9
20260503193017 53 342 3.0 5.0 0.00 0.00 0.00 44 1005.1
20260503192016 53 41 2.0 3.0 0.00 0.00 0.00 47 1005.2
20260503191002 52 318 3.0 5.0 0.00 0.00 0.00 47 1005.3
20260503190041 53 305 3.0 5.0 0.00 0.00 0.00 46 1005.2
20260503185004 54 329 1.0 7.0 0.00 0.01 0.00 46 1005.2
20260503184023 52 316 2.0 5.0 0.00 0.01 0.00 48 1005.4
20260503183028 51 343 2.0 3.0 0.00 0.01 0.00 52 1005.3
20260503182027 51 310 3.0 9.0 0.00 0.02 0.00 50 1005.3
20260503181012 51 346 0.0 5.0 0.00 0.02 0.00 51 1005.2
20260503180110 51 296 4.0 7.0 0.00 0.04 0.00 51 1005.1
20260503175015 52 31 2.0 7.0 0.00 0.04 0.00 51 1005.2
20260503174002 52 3 2.0 5.0 0.00 0.04 0.00 49 1005.1
20260503172915 51 290 3.0 7.0 0.00 0.04 0.00 49 1005.2
20260503171933 51 332 1.0 3.0 0.00 0.05 0.00 51 1005.2
20260503170939 51 36 1.0 6.0 0.00 0.05 0.00 53 1005.2
20260503150953 45 326 1.0 6.0 0.00 0.05 0.00 81 1005.3
20260503131003 45 314 3.0 6.0 0.00 0.05 0.00 76 1005.3
20260503080953 45 272 1.0 2.0 0.00 0.06 0.00 79 1006.6
20260503072930 46 334 0.0 1.0 0.00 0.06 0.00 79 1007.2
20260503071949 46 323 1.0 2.0 0.00 0.06 0.00 79 1007.1
20260503070934 46 347 0.0 2.0 0.00 0.06 0.00 79 1007.2
20260503054954 48 307 2.0 5.0 0.00 0.06 0.00 71 1008.5
20260503053940 48 0 0.0 2.0 0.00 0.06 0.00 71 1008.4
20260503053000 48 332 1.0 2.0 0.00 0.06 0.00 68 1008.5
20260503051945 48 2 0.0 1.0 0.00 0.06 0.00 70 1008.5
20260503050951 49 333 1.0 6.0 0.00 0.06 0.00 71 1008.7
20260503050010 49 336 1.0 3.0 0.00 0.06 0.00 75 1008.9
20260503044956 49 336 1.0 3.0 0.00 0.06 0.00 79 1008.6
20260503044015 49 327 0.0 3.0 0.00 0.06 0.00 84 1008.8
20260503042941 49 0.0 0.0 0.00 0.06 0.00 87 1008.9
20260503041959 49 0.0 0.0 0.00 0.06 0.00 88 1009.3
20260503040945 49 0.0 0.0 0.00 0.06 0.00 89 1009.3
20260503040005 49 0.0 0.0 0.00 0.06 0.06 90 1009.2
20260503034951 49 0.0 0.0 0.00 0.06 0.06 90 1009.4
20260503033936 49 0.0 0.0 0.00 0.06 0.06 90 1009.3
20260503032956 49 0.0 0.0 0.00 0.06 0.06 90 1009.3
20260503031942 49 0.0 0.0 0.00 0.06 0.06 90 1009.3
20260503031001 49 0.0 0.0 0.00 0.06 0.06 90 1009.5
20260503030007 49 0.0 0.0 0.00 0.06 0.06 90 1009.4
20260503025006 49 0.0 0.0 0.00 0.06 0.06 89 1009.5
20260503023952 49 0.0 0.0 0.00 0.06 0.06 89 1009.4
20260503022938 49 0.0 0.0 0.00 0.06 0.06 89 1009.5
20260503021957 49 0.0 0.0 0.00 0.06 0.06 89 1009.5
20260503021004 49 0.0 0.0 0.00 0.06 0.06 88 1009.7
20260503020023 49 0.0 0.0 0.00 0.06 0.06 88 1009.7
20260503014948 49 0.0 0.0 0.00 0.06 0.06 88 1009.8